Wind_Speed
52 50 49 49 49 48 47 46 45 44 44 43 42 41 40 38 36 35 34 32 31 31 32 32 31 30 29 28 27 27 26 24 24 23 23 23 23 23 23 22 22 22 21 21 21 19 17 15 13 12 11 12 13 14 14 13 12 12 13 13 13 12 11 11 11 12 13 12 11 10 8 7 7 6 7 7 8 8 8 8 8 9 10 11 12
53 51 49 49 49 47 46 46 45 45 45 44 43 42 41 39 37 36 35 33 32 32 32 33 34 33 32 30 29 28 27 26 25 25 25 25 24 25 25 25 24 23 23 23 23 22 19 17 15 14 13 13 14 14 15 14 13 13 13 14 14 13 12 11 11 12 13 12 10 9 8 7 6 7 7 8 8 8 8 9 9 10 12 13 14
52 51 49 49 48 47 47 47 46 46 45 45 44 43 42 40 38 37 36 35 33 33 33 34 35 35 34 33 31 30 29 27 27 26 26 26 25 26 27 27 26 25 25 24 24 23 21 19 18 16 15 14 14 15 16 16 15 14 14 14 14 14 13 13 13 13 13 12 11 10 9 8 7 7 8 9 10 9 9 10 12 12 13 14 15
54 52 50 49 47 47 47 47 47 46 46 47 46 45 43 41 40 39 37 36 35 34 33 34 35 37 37 36 34 32 31 29 29 28 27 27 27 27 28 28 27 26 25 24 24 23 23 22 20 19 17 16 15 15 15 16 16 15 14 14 14 14 14 14 14 13 13 13 12 11 10 9 8 8 9 10 10 11 11 12 13 14 14 15 16
55 54 52 50 49 48 47 47 47 47 47 47 46 45 44 43 41 40 39 38 37 35 34 34 35 37 39 39 37 34 33 31 30 30 29 28 28 28 29 28 28 27 26 25 24 23 23 23 22 21 19 18 17 16 15 15 16 16 15 15 15 15 15 14 14 14 14 14 14 12 11 11 10 10 10 10 11 11 13 14 15 14 15 16 18
56 55 54 52 51 50 49 48 48 47 47 46 45 44 43 43 42 40 39 39 39 37 35 35 36 37 39 40 40 38 35 33 32 31 30 30 29 30 30 30 29 28 27 26 25 24 24 24 23 22 20 19 18 16 15 15 15 16 16 15 15 15 15 14 14 14 15 15 15 15 14 12 12 12 12 11 12 13 15 17 18 18 18 18 20
56 56 55 54 53 53 51 50 49 48 47 46 44 42 42 42 41 40 38 39 40 38 37 37 37 38 38 39 41 40 38 36 34 33 32 31 31 31 31 31 30 30 29 27 27 26 25 24 24 22 21 19 18 16 15 15 15 16 16 16 16 16 16 15 15 15 16 17 16 16 15 14 14 14 14 14 15 16 17 19 20 22 22 21 22
55 56 55 55 54 54 53 52 50 49 48 46 44 43 42 42 41 40 38 39 40 39 37 37 38 38 39 39 40 41 41 39 37 35 34 33 32 32 32 32 32 31 30 29 28 28 27 26 25 23 21 19 18 17 16 16 16 17 17 17 17 17 17 16 16 17 17 18 17 16 16 16 16 16 16 16 17 18 19 20 21 22 22 23 24
54 54 55 55 55 54 53 53 51 51 50 48 46 45 44 43 42 41 40 40 40 39 37 38 38 39 39 39 40 41 42 42 41 39 37 36 35 34 33 33 33 33 31 30 29 29 29 28 26 24 21 19 18 18 19 19 19 19 19 18 18 19 18 17 18 18 18 18 17 15 15 16 16 16 17 17 17 18 20 20 20 21 22 23 25
52 53 54 55 55 54 53 52 52 52 51 50 49 46 45 45 43 42 41 40 40 39 38 38 39 40 40 40 41 42 43 44 43 41 39 37 36 36 35 34 34 34 33 31 31 30 30 29 27 24 22 20 20 22 23 23 22 21 20 19 19 19 19 18 19 18 18 18 16 15 15 15 16 17 17 16 17 18 18 19 19 20 22 23 23
50 51 53 54 54 53 52 51 51 52 52 51 50 48 47 46 45 43 42 42 41 40 39 40 40 40 41 41 42 43 45 45 43 42 41 38 37 37 37 35 35 35 34 33 32 31 30 30 28 25 24 23 24 26 26 25 24 22 21 20 20 19 18 18 18 18 17 17 17 16 16 16 18 18 16 15 16 17 17 17 19 20 21 21 20
50 50 52 53 52 52 52 51 51 51 51 51 50 49 47 47 46 45 44 44 43 42 41 40 41 41 42 42 43 45 46 46 44 43 42 39 38 39 38 37 36 36 35 34 32 31 31 31 29 28 27 27 27 28 28 27 25 23 22 21 20 19 18 18 18 18 17 17 18 18 18 17 17 16 14 14 15 16 16 18 19 19 18 18 17
49 50 51 52 52 51 51 51 51 51 51 50 50 49 48 48 47 47 46 45 44 44 43 42 41 42 43 44 45 45 46 46 45 44 43 40 39 40 40 39 38 37 36 34 33 32 32 32 32 31 30 29 30 30 29 28 26 23 22 21 20 19 19 18 18 18 17 18 18 18 18 17 15 15 15 15 15 15 17 18 18 18 17 16 15
50 50 51 51 51 51 51 51 51 51 51 50 50 50 49 48 48 48 47 46 46 47 46 43 42 43 44 45 46 46 46 47 46 45 44 41 40 40 40 40 39 38 37 35 33 33 33 34 34 33 32 32 33 32 30 29 28 25 23 22 21 20 20 19 18 17 18 19 18 18 18 18 17 17 17 15 15 15 16 17 17 18 18 17 18
49 50 50 50 50 50 51 51 51 51 50 50 51 50 49 48 49 49 49 49 49 49 48 46 44 44 45 45 45 45 46 47 47 46 44 42 41 41 41 41 40 39 39 37 35 34 34 35 35 35 34 34 35 34 31 29 28 27 25 23 22 22 21 19 17 17 18 18 18 17 18 18 17 17 16 15 15 15 15 16 17 18 19 19 19
47 48 49 50 50 51 51 51 51 51 50 51 51 51 50 50 50 49 49 49 49 49 49 48 47 46 45 45 45 45 46 47 48 47 45 43 42 41 41 41 40 40 40 38 37 36 35 36 37 37 37 37 36 35 32 29 28 29 27 24 22 22 21 19 17 16 17 18 18 17 17 17 16 16 15 15 15 14 14 16 17 17 16 15 14
46 47 48 48 50 51 51 51 51 51 50 51 51 51 51 50 49 49 49 49 50 50 50 49 48 48 48 46 46 46 46 47 47 45 44 43 42 43 43 42 41 41 41 40 39 37 36 37 39 39 39 39 37 35 33 29 28 29 27 24 23 22 21 19 17 17 18 18 19 18 17 17 16 15 15 14 13 13 14 15 14 13 11 10 10
45 46 47 47 48 49 49 49 49 50 50 50 51 51 50 49 49 49 49 49 49 50 50 47 41 43 49 49 47 47 46 45 45 43 42 42 43 43 43 42 41 41 42 42 40 38 38 38 40 41 41 40 37 35 32 29 28 29 27 25 25 24 22 20 19 18 19 19 19 18 17 17 16 15 15 14 13 12 13 13 11 8 7 7 9
43 45 46 47 47 46 46 47 47 49 49 49 50 50 49 49 50 49 49 50 50 49 49 43 36 39 46 46 45 47 47 45 45 44 42 41 42 43 43 42 42 42 43 42 41 39 40 41 41 42 41 40 37 34 31 29 30 30 28 26 26 24 22 21 20 19 19 19 18 17 17 16 15 15 14 13 12 12 11 11 9 7 7 8 9
40 41 43 44 44 44 45 46 46 47 47 48 48 49 49 49 49 49 50 50 50 47 44 41 40 43 43 39 40 47 48 47 47 47 44 42 41 41 42 43 43 43 43 43 42 41 42 43 43 42 41 40 38 35 31 29 31 32 29 27 25 23 21 20 20 19 18 17 17 16 16 15 15 14 13 11 11 11 10 9 9 8 8 9 9
35 38 40 41 42 44 45 46 46 45 45 46 46 47 48 48 48 49 49 48 48 45 41 39 40 40 36 32 35 43 48 49 49 48 46 43 41 41 41 42 42 43 43 44 43 42 43 45 44 42 42 40 37 33 30 28 28 30 30 28 24 20 19 20 19 18 18 17 17 17 16 15 15 13 12 10 10 10 9 8 9 9 9 9 9
31 33 35 38 40 42 43 44 45 44 44 44 45 46 47 47 47 48 48 48 48 44 42 42 38 34 32 31 32 39 46 49 49 49 47 44 43 43 42 41 40 41 42 44 44 43 45 45 43 42 41 37 32 30 30 27 25 26 28 27 24 21 20 20 19 18 18 18 18 17 17 15 14 12 11 10 10 8 7 7 8 8 9 10 11
28 30 32 34 36 38 39 41 42 42 42 43 43 44 46 46 47 47 48 49 49 46 47 46 39 34 36 36 35 39 42 44 49 51 48 47 46 44 42 40 38 38 41 44 44 44 45 45 42 39 37 33 28 28 30 28 25 25 25 24 24 23 22 21 20 19 19 18 18 18 17 15 14 13 12 11 9 7 6 7 8 9 10 12 13
27 29 30 32 33 35 36 37 38 39 39 40 41 43 45 46 46 47 47 49 50 49 47 43 37 39 43 42 41 40 37 41 51 52 48 49 49 45 43 41 38 38 40 42 42 42 42 42 39 36 35 31 29 29 30 28 26 25 25 25 26 26 24 23 21 19 19 19 19 18 17 16 15 14 13 11 9 7 7 7 8 9 11 13 14
23 25 27 28 29 31 32 34 35 35 37 38 39 42 44 45 46 48 47 48 50 49 45 41 41 46 49 48 48 45 39 41 49 49 47 48 47 45 44 41 38 38 39 40 39 38 38 37 37 36 35 33 31 31 31 28 26 26 26 27 28 27 25 23 21 19 19 19 19 18 17 16 15 14 13 11 10 9 8 8 9 11 12 13 15
19 22 24 25 25 27 28 30 32 33 35 37 38 40 42 44 46 47 47 48 49 49 49 47 46 47 46 46 47 46 45 46 48 47 47 47 45 44 44 41 38 37 38 38 36 35 35 36 37 37 35 32 33 35 33 30 27 27 29 30 29 27 25 22 20 19 19 19 18 17 16 16 16 15 14 12 11 10 9 9 10 12 13 14 16
14 17 21 23 24 25 26 27 29 31 33 35 37 39 41 43 45 46 47 48 48 48 50 49 49 48 48 48 45 43 45 49 50 50 50 50 49 47 43 40 39 38 39 40 37 36 36 34 32 31 29 29 33 35 33 30 30 32 32 31 29 26 23 20 19 18 18 18 18 17 16 17 17 16 15 13 12 11 10 10 11 13 14 15 17
9 11 15 19 21 23 24 25 26 29 31 33 36 38 40 42 44 46 47 47 47 47 49 50 51 52 53 53 50 47 48 52 54 55 54 52 50 46 41 40 41 42 45 45 42 40 36 31 29 29 28 30 33 33 32 32 35 35 35 32 28 25 22 20 18 18 19 19 19 18 17 18 18 17 15 14 13 13 12 12 13 13 15 16 17
4 6 8 12 15 17 19 21 23 25 28 30 33 36 38 40 43 45 46 47 48 50 51 52 54 53 54 55 55 54 55 55 56 56 56 53 50 46 43 42 41 43 48 50 46 41 35 29 30 32 32 33 34 32 32 36 38 37 35 32 28 25 23 22 21 21 22 21 19 18 18 18 18 17 16 14 14 15 15 15 14 14 15 16 16
0 2 4 6 8 10 12 15 17 19 21 24 27 31 34 37 41 44 45 46 49 51 52 53 53 52 51 55 58 58 57 56 56 56 57 55 53 50 46 43 41 42 46 47 44 37 32 31 33 35 36 37 35 33 35 39 40 37 34 30 28 26 24 23 23 23 22 21 18 17 18 19 18 17 16 15 16 17 16 15 15 14 15 16 15
4 3 2 1 3 5 8 10 13 15 17 20 22 25 28 31 35 40 43 46 49 51 53 55 55 52 52 54 57 56 55 55 57 57 56 56 55 50 45 42 42 42 42 44 43 41 40 42 42 41 42 41 38 37 40 41 38 35 32 29 27 26 25 24 24 23 21 20 18 18 19 19 19 17 16 16 18 18 17 16 15 14 14 15 15
12 11 10 9 8 6 5 5 6 9 13 16 19 22 25 27 30 34 38 41 45 49 52 54 55 55 54 54 55 54 54 56 57 57 56 56 53 48 43 42 42 40 40 43 45 45 47 48 47 45 43 41 40 41 42 40 36 33 32 30 29 27 25 24 23 22 21 20 19 19 19 19 18 17 16 17 18 18 17 16 15 14 15 15 15
16 15 15 14 14 13 12 12 10 8 7 9 12 16 19 23 27 30 32 35 39 43 47 50 52 55 56 56 56 56 57 58 58 57 56 52 47 45 44 43 42 43 45 46 45 46 46 46 44 43 41 40 41 43 42 39 36 34 32 31 28 26 25 24 22 21 21 20 19 19 17 16 16 16 16 17 17 17 16 15 14 14 15 15 13
15 14 14 14 14 14 14 14 12 12 12 11 10 10 13 17 21 26 29 32 34 37 40 43 46 50 54 56 56 56 58 59 57 55 53 48 44 45 46 45 44 46 48 48 47 48 47 44 42 41 41 42 43 43 40 37 36 35 32 29 26 24 24 23 22 22 22 21 19 18 17 16 16 16 16 16 16 16 15 14 14 15 15 13 11
13 12 12 11 12 13 14 13 12 12 12 13 13 12 12 13 17 22 26 28 31 34 36 38 40 42 46 49 51 53 54 54 54 53 51 47 44 46 50 50 49 49 49 48 49 49 46 43 41 40 41 42 42 40 38 37 36 34 30 27 26 25 25 24 23 23 22 20 19 18 17 16 16 15 15 15 16 15 14 14 14 15 14 12 10
12 11 11 11 11 12 12 12 12 12 12 13 14 13 12 12 12 13 15 18 22 26 30 33 35 37 38 40 44 47 49 50 50 49 48 47 47 50 54 54 53 51 49 47 47 45 42 40 39 38 40 40 38 37 37 36 34 32 29 28 27 27 26 25 25 23 21 20 19 18 17 16 16 15 15 16 15 14 14 13 13 13 12 10 9
11 11 11 11 11 12 12 11 11 11 11 12 12 12 13 14 16 17 18 18 20 23 26 30 34 36 36 37 41 45 47 51 53 50 47 48 51 52 52 53 52 51 48 46 44 42 40 39 37 36 37 37 34 34 34 33 32 31 29 28 28 27 26 25 23 22 21 20 19 18 16 16 16 16 16 16 14 13 13 12 11 11 11 10 9
9 10 10 10 10 11 10 8 8 8 9 10 11 12 14 15 17 19 20 21 23 23 23 25 28 32 34 35 39 44 44 46 52 53 48 47 49 48 47 47 47 46 46 45 43 41 39 38 36 35 34 32 31 31 31 31 31 31 29 28 27 26 24 23 22 21 21 20 19 17 16 16 17 17 17 15 13 12 11 10 9 9 9 9 9
7 8 8 9 9 9 8 6 6 7 7 8 9 11 13 15 17 18 19 22 25 20 13 14 18 22 26 30 35 38 35 36 48 53 48 44 45 44 42 43 43 42 43 44 43 40 38 36 35 32 30 29 29 30 31 31 32 31 29 28 27 26 25 24 23 22 21 20 18 16 16 16 18 18 17 14 12 11 11 10 9 9 9 8 8
7 7 8 8 8 8 7 6 5 5 5 5 7 9 11 12 12 14 15 19 24 21 9 8 10 9 10 17 23 21 14 21 38 47 43 42 43 40 38 38 40 42 43 43 41 40 37 35 33 30 28 28 29 30 31 32 32 31 29 27 26 26 25 25 23 21 20 18 17 16 16 17 18 17 16 15 13 11 11 10 9 10 9 9 9
8 8 9 9 8 7 6 6 6 4 3 3 5 7 8 8 8 8 10 15 23 28 27 24 23 21 18 19 26 26 21 22 32 37 35 35 36 34 35 36 38 41 42 40 38 37 35 33 31 29 28 29 30 31 32 32 31 30 28 26 25 25 25 24 22 20 18 17 16 15 16 17 17 17 16 14 12 11 10 10 10 10 10 10 10
9 9 9 9 8 6 4 5 5 4 2 2 3 3 4 5 4 4 5 10 17 23 26 26 26 27 26 28 29 27 25 28 32 33 32 33 33 34 38 39 39 38 37 34 33 32 32 31 30 29 30 31 31 32 32 31 30 28 27 26 26 26 24 22 20 18 17 16 16 15 16 17 17 16 15 13 12 11 11 11 11 11 11 11 11
11 10 9 9 9 8 6 5 5 4 3 3 3 2 1 2 3 1 1 5 9 13 17 21 24 24 24 25 24 23 24 28 30 31 32 33 33 34 36 36 33 31 29 27 27 27 28 29 29 29 30 31 31 30 30 28 27 27 27 27 26 25 23 21 19 18 17 16 15 15 16 17 16 15 14 13 12 11 12 12 12 12 12 11 11
13 13 12 11 10 9 7 6 5 4 4 4 4 3 2 2 3 2 2 4 6 8 11 16 20 23 24 24 23 22 23 25 27 29 30 30 30 30 30 28 27 25 24 24 25 26 27 28 29 29 29 29 28 27 26 25 25 26 26 26 25 23 21 20 18 17 16 16 16 16 16 16 15 14 14 13 12 12 13 14 14 14 13 12 11
14 14 14 13 12 11 9 9 7 6 5 6 5 2 1 2 2 1 3 5 9 11 12 15 18 21 22 22 22 22 23 24 25 26 26 26 26 26 25 24 24 24 25 25 25 25 26 27 27 28 28 27 26 25 24 23 24 24 24 23 23 21 20 19 17 16 15 15 15 16 16 15 15 14 14 13 13 14 14 15 15 15 15 14 12
18 18 18 16 15 14 13 12 11 9 7 6 6 4 2 3 4 4 4 6 9 11 14 18 22 23 21 21 21 22 23 23 23 23 23 23 23 24 25 26 26 26 25 25 25 26 26 27 27 27 27 25 25 24 24 24 23 23 21 20 19 19 18 17 16 15 15 16 16 16 15 15 14 14 14 14 15 16 16 16 16 16 15 14 12
19 22 22 20 19 19 18 16 15 13 11 8 7 5 3 4 6 8 8 8 8 9 12 17 21 22 20 19 20 22 23 23 22 21 21 21 23 26 27 27 26 26 25 25 26 26 27 27 26 26 25 24 24 25 25 24 23 22 21 20 19 18 17 16 15 14 14 14 14 14 13 13 14 15 15 16 17 18 18 18 18 17 16 14 13
20 22 22 21 20 21 22 21 19 16 14 13 11 9 6 3 4 8 10 10 10 9 10 12 15 17 17 17 18 21 23 21 20 20 20 20 22 23 22 22 23 25 26 26 26 25 25 24 24 24 24 24 24 24 24 24 23 22 21 20 19 17 15 14 13 12 12 12 11 11 11 13 15 18 19 19 19 20 20 19 18 17 16 15 13
24 24 24 23 20 19 19 20 19 17 16 16 16 14 12 9 5 1 3 5 7 8 8 10 12 14 16 16 16 17 18 18 17 17 18 18 19 19 18 21 24 26 25 24 23 22 22 22 23 23 23 23 23 23 23 22 22 21 21 20 18 16 14 13 12 12 11 11 10 10 12 14 17 19 20 21 21 21 20 18 18 17 16 14 14
24 24 24 25 24 22 20 20 20 19 18 17 17 18 18 16 14 12 9 6 5 5 6 7 9 11 12 13 12 11 12 13 14 16 16 17 17 18 20 22 24 24 23 22 21 20 21 21 21 22 22 22 22 22 21 21 21 21 20 18 16 15 14 14 13 12 11 11 10 10 12 15 17 18 20 20 21 21 20 19 19 18 17 15 14
22 22 21 22 23 23 23 22 21 20 19 17 18 20 21 21 21 20 18 15 13 10 7 6 7 7 7 9 10 10 10 11 13 15 16 17 17 18 20 21 22 22 21 20 19 20 20 20 20 20 21 21 22 21 21 20 20 19 19 18 17 16 15 14 13 12 11 11 11 11 12 14 16 16 17 17 18 18 18 19 19 18 16 15 13
Wind_Direction
233 234 235 235 236 237 237 238 238 238 239 239 240 240 240 240 240 241 240 238 236 234 233 233 235 235 235 233 232 232 232 233 236 236 236 234 232 230 229 228 230 231 230 229 229 227 227 228 230 234 241 249 252 251 251 252 256 258 258 259 262 265 270 276 282 288 297 302 300 295 294 289 273 256 250 251 254 263 269 273 285 297 299 298 297
234 235 235 235 237 237 238 238 239 239 239 239 240 239 240 241 240 241 241 239 237 235 234 233 233 234 234 233 231 230 230 232 235 236 235 234 231 230 229 228 229 230 230 229 229 228 228 228 232 235 240 248 252 252 251 251 253 258 262 264 266 270 273 277 283 287 292 297 295 288 287 289 275 255 246 248 260 270 273 280 293 297 297 297 299
235 236 236 236 238 238 237 238 239 240 240 240 241 240 241 241 240 240 240 240 238 236 234 232 232 232 233 233 231 229 229 230 233 235 234 233 232 230 229 229 229 230 230 229 229 229 228 228 231 234 237 244 250 253 252 252 252 257 264 268 270 273 276 281 286 288 290 292 291 286 286 286 277 264 256 257 266 275 283 293 299 298 298 299 302
235 237 237 237 238 238 238 238 239 239 239 240 241 241 242 242 242 240 240 240 239 237 235 233 232 232 232 232 230 229 228 228 231 234 234 233 231 230 230 231 231 230 231 230 230 230 229 228 230 233 236 241 248 252 254 254 254 257 265 271 273 275 277 280 283 285 286 288 290 290 287 283 279 275 272 269 270 278 289 299 300 300 302 303 304
234 237 237 236 236 238 239 239 239 239 239 240 241 242 242 242 243 242 240 240 239 237 236 235 233 232 231 231 230 229 229 228 229 232 234 233 231 230 231 231 232 232 232 232 232 232 231 229 230 232 235 239 244 250 254 257 258 259 264 271 275 276 277 277 277 277 278 281 287 289 287 284 283 281 281 281 283 290 297 300 299 300 304 307 308
234 236 236 234 234 237 239 238 239 239 239 240 241 242 242 242 243 243 241 241 240 238 236 235 234 233 232 231 230 229 229 229 229 231 233 234 232 231 231 232 233 234 233 232 233 233 232 231 231 232 234 237 241 246 252 257 259 260 263 269 274 276 275 272 270 271 274 279 283 285 283 282 282 283 285 289 294 297 302 304 305 305 305 307 310
233 235 235 234 234 237 238 239 240 240 240 241 242 242 242 241 242 242 241 241 241 239 236 235 235 234 234 233 231 231 230 229 230 230 232 233 232 232 232 233 234 235 233 232 232 233 233 233 233 233 234 236 239 243 247 252 255 258 261 264 268 272 272 270 269 271 274 278 281 280 278 276 276 280 284 291 295 295 299 304 305 304 303 304 308
234 235 235 234 235 238 238 239 240 240 241 242 242 243 242 242 241 241 241 241 241 239 237 236 236 236 236 234 233 232 231 230 229 229 230 232 232 232 233 234 235 235 234 232 231 232 232 233 234 234 234 236 237 240 244 248 250 252 254 256 260 265 267 268 269 271 274 276 277 276 274 272 272 275 281 287 291 292 295 298 297 297 298 302 307
235 235 235 236 237 238 238 238 240 240 241 241 242 242 242 242 242 241 241 240 240 240 238 237 236 236 237 236 235 234 232 230 229 228 228 229 231 231 232 234 235 236 235 233 231 231 232 233 234 233 235 236 234 236 241 245 247 248 249 248 251 256 262 266 267 268 272 275 275 273 272 271 270 271 276 281 284 288 291 293 293 295 299 303 306
235 234 235 236 237 237 237 238 239 240 240 240 241 241 241 241 241 241 241 241 240 240 238 237 236 236 237 237 236 235 233 231 229 228 228 228 230 231 231 232 234 235 235 233 231 231 232 233 234 233 235 234 231 232 237 241 244 247 248 246 246 250 256 261 264 265 269 272 272 271 272 272 273 274 276 279 284 288 289 291 296 300 303 305 308
233 233 235 236 236 236 236 237 238 239 239 239 240 240 240 241 241 241 241 240 240 239 238 236 236 236 236 236 236 236 234 232 229 229 228 227 229 231 231 231 233 235 235 233 231 230 231 233 233 233 233 232 231 233 235 239 242 245 248 247 245 246 250 255 260 263 266 267 267 268 269 270 273 277 277 279 284 286 287 293 299 302 303 305 307
232 233 234 234 234 235 235 235 236 238 238 238 238 239 239 241 241 241 240 240 240 239 238 236 236 236 236 236 236 236 235 233 231 230 229 227 227 230 232 232 232 234 235 233 231 230 231 232 232 232 233 233 235 235 235 237 242 244 248 249 245 244 247 250 256 261 263 262 263 266 267 268 272 275 275 277 281 285 289 296 299 300 301 303 304
232 232 232 232 233 233 233 234 236 237 238 238 238 238 239 240 240 240 240 239 239 239 238 236 236 236 236 236 236 237 236 234 232 232 231 228 228 230 232 232 232 233 235 234 232 230 230 231 231 232 232 234 236 236 234 235 239 243 245 245 242 243 245 246 250 256 258 259 260 262 264 266 269 272 274 277 281 287 292 297 298 299 300 300 299
231 231 231 231 231 231 232 234 235 237 238 237 237 237 238 239 240 240 240 239 238 239 239 237 236 236 237 237 236 237 237 236 234 234 233 230 230 230 232 233 233 233 234 234 232 231 230 230 231 231 231 233 236 236 233 233 236 238 239 238 239 243 244 242 243 248 252 256 257 259 262 265 267 269 274 277 282 289 293 294 296 297 298 298 299
230 229 230 230 230 231 232 234 235 236 237 236 237 237 238 239 239 239 239 239 239 239 239 238 237 236 237 238 238 238 239 238 236 235 234 232 232 232 233 234 233 233 233 233 232 231 230 230 231 232 231 233 236 237 236 234 234 234 233 235 238 240 241 239 238 243 249 254 255 256 260 263 263 266 272 278 284 289 291 292 294 296 298 300 304
228 229 230 231 231 232 233 234 235 235 235 235 236 237 238 238 239 239 239 240 240 239 239 239 238 238 239 240 240 240 241 240 238 236 235 234 234 233 234 234 233 233 233 232 231 231 229 229 231 232 232 233 235 238 238 236 234 231 230 231 233 235 236 235 234 238 244 248 248 249 255 259 260 264 271 279 285 287 290 295 296 297 299 301 306
230 230 231 233 234 234 234 234 235 235 235 235 236 237 238 239 239 239 239 240 240 239 240 240 239 239 239 240 241 241 242 242 241 239 238 237 236 234 234 234 232 232 232 232 231 230 228 228 230 232 233 233 235 238 237 235 234 230 226 226 228 229 231 230 227 231 238 241 243 247 254 257 259 265 274 279 283 286 292 296 295 293 295 299 305
232 232 233 234 235 235 235 236 237 236 236 237 238 239 239 240 241 240 240 240 240 240 241 241 239 238 239 240 241 241 243 245 245 244 242 241 239 237 235 234 233 232 232 232 232 230 229 229 231 233 235 235 238 240 238 235 232 228 224 226 228 227 228 227 223 226 232 236 242 249 254 258 262 268 273 276 279 285 290 290 284 278 282 292 300
234 235 235 235 236 237 238 238 238 238 239 240 240 240 240 241 241 241 241 241 241 240 240 239 236 238 240 240 240 241 242 245 247 246 244 243 242 240 237 235 234 233 232 231 231 229 229 230 231 234 236 239 241 241 238 234 230 227 227 230 229 227 228 227 224 224 229 235 243 248 251 256 261 265 268 271 276 283 286 281 272 265 278 292 299
237 238 237 237 238 239 239 238 239 240 242 242 242 241 242 242 242 243 243 242 242 240 238 237 238 241 240 237 238 241 241 242 245 246 244 243 243 241 238 235 234 233 232 232 230 227 227 229 231 234 237 240 242 241 237 232 228 227 229 231 230 228 228 225 221 223 228 234 239 242 246 252 256 258 261 265 272 278 279 271 262 266 284 297 302
241 240 238 238 239 239 239 240 241 242 244 244 242 242 242 242 242 243 243 242 241 239 237 237 239 240 238 235 236 241 243 242 243 245 245 243 242 240 238 237 235 233 232 232 231 228 228 229 230 232 234 237 240 236 229 225 226 227 229 231 234 235 229 221 218 220 225 231 235 238 243 247 248 249 252 260 268 272 271 263 261 272 289 300 303
242 240 239 239 239 240 241 241 242 242 242 243 242 242 243 242 243 244 244 243 242 239 238 240 240 239 239 236 234 239 244 245 245 245 245 244 241 239 238 238 236 232 230 232 231 229 230 231 230 231 232 234 235 228 219 219 223 224 227 232 235 230 219 213 213 217 221 228 233 237 241 242 240 240 243 250 259 262 260 258 264 277 292 301 307
240 240 241 241 242 244 244 243 243 243 243 244 244 243 243 243 244 245 244 244 242 240 242 243 240 238 240 239 240 242 242 245 247 246 244 243 240 238 237 237 235 229 227 229 229 227 230 232 232 233 234 236 237 228 218 219 223 222 225 230 224 213 207 207 211 215 221 228 232 235 238 237 233 234 237 242 247 246 243 253 266 281 295 304 309
237 239 243 244 245 246 247 247 246 246 246 247 245 243 243 244 244 245 245 245 243 243 243 241 237 240 243 243 244 243 240 245 250 249 246 244 241 238 236 234 230 226 225 226 226 225 228 232 234 234 234 235 238 231 221 220 222 221 222 219 209 204 204 206 210 215 222 227 230 232 233 231 230 232 232 233 236 235 237 251 267 283 296 304 309
238 239 242 245 248 249 250 250 250 249 249 248 246 246 245 244 244 244 245 245 243 241 241 240 241 245 246 245 245 243 240 245 250 249 246 245 244 243 241 235 229 224 222 222 222 221 224 228 230 231 228 226 225 222 218 218 218 216 215 209 204 203 204 205 210 216 221 224 226 227 227 227 227 228 227 228 234 237 241 254 270 283 293 300 307
240 240 240 242 245 248 249 250 250 251 251 250 249 249 248 247 247 246 245 244 243 242 243 244 245 246 245 244 244 241 239 244 248 247 245 243 243 245 243 238 232 228 224 223 220 216 218 222 226 227 225 220 215 214 214 215 212 209 208 205 203 204 205 207 212 216 218 221 222 222 223 225 224 224 225 231 236 240 247 260 272 284 291 296 303
238 238 239 239 241 243 245 246 247 248 249 250 250 250 249 249 248 247 245 243 241 242 244 244 244 245 245 245 242 239 238 243 247 245 242 240 239 238 236 234 232 229 226 227 223 217 216 218 220 222 221 216 214 214 214 211 206 203 202 202 203 204 207 211 215 216 218 220 218 218 220 222 223 226 230 236 240 245 253 262 271 280 287 293 299
233 235 237 238 239 241 243 246 247 247 247 249 249 249 249 250 249 250 250 248 245 245 247 247 246 248 248 246 242 239 239 244 248 246 241 237 234 229 225 226 227 225 224 224 221 218 217 211 204 204 205 205 209 210 208 206 204 200 198 199 202 206 207 208 208 210 213 213 212 214 219 222 225 229 232 238 246 252 256 261 268 275 280 288 296
239 241 242 243 244 245 247 248 249 249 250 250 250 251 252 252 252 253 254 254 252 252 252 252 253 254 252 249 247 244 244 249 252 249 243 239 234 229 225 223 221 220 222 221 219 218 214 202 193 192 192 196 202 205 207 207 202 198 198 199 202 204 204 203 204 206 208 208 210 215 221 224 227 229 234 242 249 253 256 261 266 270 276 286 293
245 252 256 260 261 260 261 260 259 258 257 256 256 256 255 254 254 253 253 253 253 252 251 251 253 252 251 252 254 253 252 255 257 252 247 244 240 234 230 222 214 212 216 218 217 214 205 195 192 191 191 195 199 204 210 209 201 197 199 202 202 202 202 203 207 208 207 207 212 218 222 224 226 229 235 243 248 252 257 260 262 266 276 287 290
78 76 56 338 298 287 281 276 273 270 267 266 265 263 262 259 257 255 254 254 254 252 251 250 250 249 248 252 256 254 251 252 253 251 251 250 243 234 227 220 214 211 210 207 204 200 196 194 194 193 194 196 197 201 207 206 201 200 201 201 201 202 203 205 207 206 204 207 213 218 220 221 225 232 239 243 246 252 256 257 258 266 278 285 284
79 76 70 63 53 37 15 345 309 286 276 272 269 268 268 267 264 261 260 258 257 256 254 252 252 250 249 249 251 251 249 248 249 249 251 249 240 228 220 217 215 212 204 197 194 193 193 193 192 192 193 194 193 197 202 204 204 204 202 200 201 202 205 208 207 203 204 209 215 217 219 221 227 236 242 243 245 249 252 252 257 269 281 284 282
78 72 65 58 51 44 38 31 20 4 339 307 287 279 275 273 272 271 268 265 262 260 257 255 254 254 252 250 248 247 248 249 250 251 250 244 232 220 214 214 212 204 193 189 190 191 190 190 191 192 193 192 192 196 200 203 206 207 205 205 205 205 206 207 204 203 207 211 214 216 219 224 231 238 242 243 242 243 245 250 259 271 280 279 276
75 70 62 53 43 37 33 28 24 21 15 3 346 323 302 289 282 279 277 275 272 268 264 261 257 255 253 251 249 247 247 248 249 250 246 237 225 216 211 209 205 197 188 185 189 190 188 190 194 195 194 192 192 196 200 204 207 207 207 207 208 208 207 205 202 205 209 210 212 216 220 227 233 236 238 238 236 235 240 251 262 270 274 272 267
69 68 62 50 39 34 29 26 26 23 15 11 5 354 337 316 298 289 286 285 285 282 278 273 266 259 256 255 253 250 248 246 245 245 241 232 220 212 206 199 194 190 186 186 188 189 189 191 196 197 194 192 192 197 201 204 207 207 206 206 206 207 206 204 204 207 209 209 213 218 223 229 232 230 229 230 231 236 244 252 259 264 267 264 259
56 56 53 47 42 36 31 30 31 26 19 13 10 8 9 3 346 329 317 310 305 300 292 283 276 268 261 256 253 251 250 246 241 236 232 225 215 206 199 191 185 184 185 185 185 187 190 194 196 196 195 194 195 197 201 203 205 205 205 206 207 206 205 204 206 208 208 210 216 221 225 229 227 223 224 228 233 240 246 249 252 256 256 252 253
45 44 43 45 44 38 33 34 35 35 32 25 22 26 30 28 24 19 9 356 343 327 308 292 281 271 261 252 244 239 240 242 236 227 221 216 207 197 190 184 180 179 181 182 184 186 192 196 197 195 195 195 195 196 199 202 204 204 205 208 209 208 207 207 207 208 209 213 219 223 224 226 224 223 225 229 232 236 240 243 246 249 252 257 264
43 42 42 46 49 45 42 43 50 55 52 41 35 34 31 27 27 25 19 14 4 342 314 292 278 264 255 249 236 223 220 222 218 211 205 199 192 183 178 175 175 175 178 182 185 189 193 195 195 193 193 193 194 195 197 200 202 204 207 208 208 208 208 206 206 207 211 216 220 222 223 224 225 226 227 225 224 228 234 239 241 241 248 265 274
50 51 50 54 59 60 59 60 72 79 70 50 40 37 33 31 31 31 32 33 25 6 318 265 244 231 226 224 219 213 210 199 187 181 178 175 170 167 167 168 171 176 180 184 188 192 194 193 192 191 191 192 193 195 196 199 202 205 207 207 206 204 204 204 205 209 213 217 219 221 223 224 226 227 225 218 217 225 233 237 237 233 235 248 258
50 54 55 57 64 71 67 57 61 80 83 66 55 49 42 39 39 39 46 54 55 57 82 165 174 171 188 192 183 176 172 160 153 151 152 156 157 160 166 171 176 181 185 187 189 191 192 191 189 189 191 191 192 195 197 200 204 206 206 206 205 203 203 205 209 213 216 218 221 223 224 224 225 223 219 215 217 226 232 236 241 243 244 247 252
44 51 54 56 62 70 66 52 50 62 86 84 71 60 48 44 51 58 63 75 83 90 100 111 112 105 108 131 136 126 119 132 141 142 147 155 159 164 173 180 183 185 187 189 189 188 188 188 186 185 187 189 192 195 198 202 204 205 205 205 204 204 205 208 211 214 217 219 222 223 221 222 221 217 214 216 223 229 233 239 245 250 254 256 257
43 49 54 56 61 65 63 51 48 50 45 40 54 59 45 36 46 74 89 97 106 110 112 116 119 120 123 132 136 134 137 147 152 155 160 165 168 173 180 185 188 189 189 189 187 185 185 183 181 182 186 190 193 196 199 202 203 204 203 203 202 203 206 209 212 215 217 219 220 219 218 218 216 212 214 222 228 230 237 244 247 248 251 252 254
46 47 48 50 54 59 57 42 31 23 4 337 325 322 349 0 353 342 120 120 122 127 130 131 136 141 144 146 150 153 155 159 163 168 172 175 177 179 182 185 186 186 186 186 185 182 180 179 180 185 191 194 197 199 200 201 202 201 201 202 202 204 207 210 212 214 216 216 216 214 213 213 213 215 222 229 231 235 243 248 250 250 249 246 250
52 52 51 47 46 47 44 35 24 9 351 335 327 319 298 295 305 295 238 171 148 148 151 151 152 155 157 158 162 167 170 172 175 176 177 178 179 179 179 179 179 179 179 180 180 179 180 182 185 190 194 196 197 198 199 201 202 202 203 203 204 205 208 211 214 216 216 214 211 210 210 213 217 223 228 230 233 239 246 251 253 251 246 243 246
56 55 54 52 49 44 36 30 25 14 359 352 357 0 302 273 273 252 213 185 168 164 168 169 167 166 166 168 172 176 177 175 174 173 174 175 175 174 173 174 175 175 174 174 176 179 183 187 189 191 193 193 194 195 198 200 202 204 205 206 207 208 210 213 215 215 213 209 207 208 212 217 223 227 229 233 239 243 245 249 252 249 244 241 244
58 57 55 54 53 51 43 35 27 19 6 354 348 338 287 252 235 211 189 183 184 184 183 180 179 178 178 177 176 176 176 173 171 172 174 174 173 173 173 172 172 173 172 172 177 181 184 186 187 189 191 193 194 196 197 198 199 200 202 204 206 208 210 212 212 209 207 206 207 211 216 221 226 231 234 238 243 245 243 244 245 244 240 238 242
58 58 58 57 55 53 51 47 41 34 27 14 0 349 323 267 240 223 208 196 196 202 201 192 186 183 183 183 181 179 178 178 178 178 178 178 181 181 176 170 170 173 174 175 179 181 182 184 186 190 193 196 198 198 197 196 197 198 197 198 201 204 205 207 204 201 202 205 208 212 220 227 233 240 243 243 244 246 245 243 242 240 238 238 243
60 60 59 57 56 53 51 51 49 43 37 32 27 22 15 347 250 228 222 219 216 216 217 210 198 190 189 193 193 186 182 183 188 189 188 192 198 196 183 170 170 175 177 178 180 182 184 187 190 192 195 198 199 200 200 199 198 197 196 197 200 202 203 202 200 198 200 205 210 220 233 239 242 246 247 245 245 245 244 241 237 235 235 239 246
63 63 62 60 59 55 52 50 49 47 46 46 44 43 42 41 45 104 204 215 214 213 218 219 210 198 192 192 194 190 185 186 192 195 197 203 209 203 187 175 176 178 179 181 184 186 189 192 193 193 194 197 199 200 200 199 197 196 195 196 197 198 198 199 201 202 206 212 221 235 247 250 250 251 251 248 245 242 239 233 230 230 234 241 247
62 62 62 62 61 61 60 58 56 55 55 55 53 52 51 49 51 58 70 93 129 156 177 192 198 195 191 189 189 188 185 183 185 188 191 194 195 191 183 180 180 181 184 187 191 192 192 193 193 193 194 195 196 196 197 196 195 194 194 193 194 196 198 200 202 205 210 219 231 246 258 261 260 256 252 246 240 235 231 230 231 235 239 241 243
62 61 61 61 61 61 60 60 60 59 58 57 57 59 60 58 57 59 62 67 75 85 105 143 169 183 194 196 186 174 169 174 180 182 182 182 182 183 183 182 183 187 191 193 194 194 194 194 194 193 193 193 193 192 192 193 194 194 192 191 192 193 194 196 199 204 211 223 237 254 268 272 267 257 245 236 231 230 230 233 236 239 239 236 235
Height
1484 1488 1491 1495 1497 1500 1503 1505 1508 1511 1513 1515 1517 1519 1522 1524 1526 1529 1531 1534 1536 1538 1539 1541 1542 1543 1545 1547 1548 1550 1552 1554 1555 1556 1558 1559 1560 1562 1563 1564 1565 1565 1567 1567 1568 1569 1570 1570 1571 1572 1573 1574 1575 1575 1576 1577 1577 1578 1579 1580 1580 1581 1582 1583 1583 1584 1584 1584 1584 1584 1584 1584 1583 1583 1583 1583 1583 1583 1583 1583 1582 1582 1582 1582 1582
1479 1482 1486 1489 1491 1494 1498 1501 1503 1506 1508 1510 1512 1515 1517 1519 1522 1525 1527 1529 1531 1533 1535 1537 1538 1540 1541 1543 1545 1547 1548 1551 1552 1553 1555 1556 1557 1559 1560 1560 1561 1562 1563 1564 1565 1567 1567 1568 1569 1570 1571 1572 1573 1574 1574 1575 1576 1576 1577 1577 1578 1579 1580 1580 1580 1581 1582 1582 1582 1582 1582 1582 1582 1582 1582 1582 1582 1582 1581 1581 1581 1580 1580 1580 1580
1474 1478 1481 1484 1486 1490 1493 1495 1498 1500 1503 1505 1507 1510 1512 1515 1518 1520 1523 1525 1527 1529 1530 1532 1534 1535 1537 1539 1541 1543 1545 1547 1549 1550 1552 1553 1554 1555 1556 1557 1558 1559 1560 1561 1563 1564 1565 1566 1566 1567 1568 1569 1570 1571 1572 1573 1574 1574 1575 1576 1576 1577 1578 1578 1578 1579 1579 1580 1581 1581 1581 1581 1581 1581 1581 1581 1580 1580 1580 1579 1579 1578 1578 1578 1578
1470 1473 1476 1479 1482 1485 1488 1490 1493 1495 1497 1500 1502 1505 1508 1511 1513 1516 1518 1520 1522 1524 1526 1528 1529 1531 1533 1535 1537 1539 1541 1543 1545 1547 1548 1550 1551 1552 1553 1554 1555 1556 1557 1559 1560 1561 1562 1563 1563 1564 1565 1566 1567 1569 1570 1571 1572 1573 1574 1574 1575 1576 1576 1577 1577 1577 1577 1578 1579 1579 1579 1580 1579 1579 1579 1579 1579 1578 1578 1577 1577 1577 1576 1576 1575
1465 1468 1471 1475 1478 1480 1482 1485 1488 1490 1492 1495 1497 1501 1503 1506 1508 1511 1514 1515 1517 1519 1521 1523 1525 1526 1528 1530 1533 1535 1537 1540 1542 1543 1545 1546 1548 1549 1550 1551 1552 1553 1555 1556 1557 1559 1559 1560 1560 1561 1562 1563 1564 1566 1567 1569 1570 1571 1572 1573 1573 1574 1574 1575 1575 1576 1576 1576 1577 1577 1577 1578 1578 1577 1577 1577 1577 1576 1576 1575 1575 1575 1574 1573 1572
1461 1463 1466 1470 1472 1474 1476 1479 1482 1484 1487 1490 1493 1496 1499 1501 1503 1505 1508 1510 1512 1514 1516 1518 1520 1522 1524 1526 1529 1531 1533 1536 1538 1540 1542 1543 1544 1546 1547 1548 1549 1550 1552 1553 1554 1555 1556 1557 1557 1558 1559 1560 1561 1563 1564 1566 1568 1569 1570 1571 1572 1572 1573 1573 1574 1574 1574 1574 1575 1575 1575 1575 1575 1575 1575 1575 1575 1574 1574 1573 1572 1572 1571 1571 1570
1456 1458 1461 1464 1466 1468 1470 1473 1476 1479 1482 1485 1488 1491 1493 1496 1498 1500 1503 1504 1506 1509 1511 1513 1515 1517 1520 1522 1524 1527 1529 1532 1534 1536 1538 1539 1540 1542 1543 1545 1546 1547 1548 1550 1551 1552 1553 1554 1554 1555 1556 1558 1559 1560 1561 1563 1564 1566 1567 1568 1569 1570 1571 1571 1572 1572 1573 1573 1573 1572 1572 1573 1573 1573 1573 1573 1572 1572 1572 1571 1570 1569 1569 1568 1567
1450 1452 1455 1458 1460 1461 1464 1468 1471 1474 1477 1480 1483 1486 1488 1490 1493 1495 1497 1499 1501 1504 1506 1509 1511 1513 1515 1517 1520 1522 1524 1527 1529 1531 1533 1535 1536 1538 1539 1541 1542 1543 1545 1546 1547 1548 1549 1550 1551 1553 1554 1555 1556 1557 1558 1559 1560 1561 1562 1564 1565 1566 1567 1568 1569 1570 1570 1570 1570 1570 1570 1570 1570 1570 1570 1570 1570 1570 1569 1569 1569 1568 1567 1566 1565
1444 1447 1450 1452 1453 1456 1460 1464 1466 1469 1472 1475 1478 1480 1483 1485 1488 1490 1492 1493 1496 1499 1502 1504 1506 1508 1510 1512 1515 1517 1519 1521 1523 1526 1528 1530 1532 1534 1535 1537 1538 1540 1541 1542 1544 1545 1546 1547 1548 1550 1551 1552 1553 1554 1554 1555 1555 1556 1558 1559 1561 1562 1564 1565 1566 1567 1567 1568 1568 1568 1568 1567 1567 1568 1567 1567 1567 1567 1567 1567 1566 1566 1565 1564 1563
1439 1442 1444 1445 1448 1452 1456 1459 1462 1465 1467 1469 1472 1475 1478 1480 1483 1485 1486 1489 1491 1494 1497 1499 1500 1502 1504 1507 1509 1511 1513 1515 1517 1520 1523 1526 1528 1530 1531 1533 1534 1536 1537 1539 1540 1541 1542 1543 1545 1546 1548 1548 1549 1550 1550 1551 1552 1553 1554 1555 1557 1558 1560 1561 1563 1564 1565 1565 1565 1565 1565 1565 1565 1565 1565 1564 1564 1564 1564 1564 1564 1563 1562 1561 1560
1434 1437 1438 1440 1444 1448 1451 1455 1457 1459 1462 1464 1467 1470 1473 1475 1477 1479 1481 1484 1486 1488 1491 1493 1495 1497 1499 1501 1503 1505 1506 1509 1512 1515 1518 1521 1524 1525 1527 1529 1530 1531 1533 1535 1536 1537 1538 1540 1541 1543 1543 1543 1544 1545 1546 1547 1548 1549 1551 1552 1553 1555 1556 1558 1559 1561 1562 1562 1563 1563 1563 1563 1562 1562 1562 1562 1562 1562 1562 1562 1562 1561 1560 1559 1557
1429 1431 1433 1436 1440 1443 1447 1450 1452 1454 1456 1459 1462 1465 1469 1471 1472 1474 1476 1478 1481 1483 1485 1488 1490 1492 1494 1496 1498 1499 1501 1504 1507 1510 1513 1516 1519 1521 1523 1525 1526 1527 1529 1530 1532 1533 1534 1536 1537 1538 1539 1540 1541 1541 1542 1543 1545 1546 1547 1548 1550 1551 1553 1554 1556 1558 1559 1559 1559 1560 1560 1560 1560 1560 1560 1560 1559 1559 1559 1560 1559 1559 1558 1557 1556
1424 1426 1429 1432 1435 1439 1442 1445 1447 1449 1451 1454 1458 1461 1464 1465 1467 1469 1471 1473 1476 1477 1479 1482 1485 1487 1489 1490 1492 1493 1496 1499 1501 1504 1507 1511 1514 1516 1518 1520 1521 1523 1525 1526 1528 1529 1530 1531 1532 1534 1535 1535 1536 1537 1538 1540 1541 1542 1543 1544 1545 1547 1549 1550 1552 1554 1555 1556 1557 1557 1557 1558 1558 1558 1558 1558 1557 1557 1557 1557 1557 1556 1556 1555 1553
1421 1424 1426 1429 1432 1435 1438 1440 1442 1445 1447 1450 1453 1455 1458 1460 1461 1464 1466 1468 1470 1471 1474 1477 1480 1481 1483 1484 1486 1488 1491 1493 1496 1499 1502 1506 1509 1511 1514 1516 1517 1519 1520 1522 1524 1525 1526 1527 1527 1529 1530 1531 1531 1532 1534 1535 1537 1538 1539 1539 1541 1542 1544 1545 1547 1549 1551 1552 1553 1554 1555 1555 1555 1555 1555 1555 1555 1555 1555 1555 1555 1554 1554 1552 1551
1419 1422 1425 1427 1429 1431 1433 1435 1437 1440 1442 1445 1447 1449 1452 1454 1456 1458 1460 1463 1464 1466 1469 1472 1474 1476 1478 1479 1481 1483 1485 1488 1490 1494 1497 1500 1504 1507 1509 1511 1513 1514 1516 1517 1519 1520 1521 1522 1523 1524 1526 1526 1527 1528 1529 1531 1532 1533 1534 1535 1536 1538 1539 1541 1543 1545 1547 1549 1550 1552 1552 1553 1553 1553 1553 1553 1553 1552 1553 1553 1552 1552 1551 1550 1549
1415 1418 1421 1423 1425 1427 1428 1431 1433 1435 1438 1441 1442 1444 1447 1448 1451 1454 1456 1458 1461 1463 1465 1466 1468 1471 1473 1475 1477 1478 1480 1482 1484 1488 1492 1496 1499 1502 1504 1505 1507 1509 1510 1512 1513 1514 1516 1517 1518 1519 1520 1521 1522 1523 1525 1526 1527 1528 1529 1530 1532 1533 1534 1536 1539 1541 1543 1545 1547 1548 1549 1550 1550 1550 1550 1550 1550 1550 1550 1550 1549 1549 1548 1548 1547
1410 1412 1415 1417 1419 1421 1424 1426 1429 1432 1435 1437 1438 1440 1442 1444 1447 1450 1452 1453 1456 1458 1459 1461 1463 1466 1468 1470 1471 1473 1475 1476 1479 1483 1487 1491 1494 1496 1497 1500 1502 1503 1505 1506 1508 1509 1511 1512 1513 1514 1514 1516 1518 1520 1522 1523 1524 1525 1525 1526 1527 1529 1530 1532 1535 1537 1540 1542 1544 1545 1546 1547 1547 1548 1548 1548 1548 1548 1547 1547 1547 1546 1546 1546 1546
1405 1407 1409 1411 1413 1416 1419 1422 1425 1428 1430 1432 1433 1435 1437 1440 1442 1444 1447 1448 1451 1453 1456 1458 1460 1461 1462 1464 1466 1468 1470 1472 1474 1478 1482 1486 1488 1490 1492 1495 1497 1498 1499 1501 1502 1504 1506 1507 1508 1509 1510 1512 1516 1518 1520 1522 1522 1523 1523 1524 1524 1525 1526 1528 1531 1534 1536 1539 1540 1542 1543 1544 1545 1545 1545 1545 1545 1545 1545 1544 1545 1545 1545 1545 1544
1400 1402 1405 1407 1410 1413 1416 1419 1421 1423 1425 1427 1429 1431 1434 1436 1438 1441 1443 1444 1447 1450 1452 1454 1455 1455 1457 1459 1461 1463 1466 1467 1468 1472 1476 1479 1482 1484 1487 1489 1491 1492 1493 1495 1497 1499 1501 1502 1503 1505 1507 1509 1513 1516 1517 1519 1520 1521 1522 1522 1522 1522 1523 1525 1528 1530 1533 1535 1537 1539 1540 1541 1542 1543 1543 1543 1543 1542 1542 1542 1542 1543 1543 1543 1542
1398 1401 1404 1407 1410 1412 1413 1415 1416 1418 1420 1422 1426 1429 1431 1433 1435 1437 1439 1441 1443 1446 1448 1448 1449 1449 1451 1454 1455 1457 1459 1460 1461 1464 1468 1472 1475 1478 1481 1483 1485 1487 1488 1489 1491 1493 1495 1496 1498 1500 1502 1504 1508 1511 1513 1514 1515 1517 1519 1520 1520 1520 1521 1523 1525 1528 1530 1533 1534 1536 1537 1538 1539 1540 1541 1541 1540 1540 1540 1540 1540 1541 1541 1541 1540
1398 1401 1403 1406 1408 1409 1411 1413 1414 1415 1417 1420 1423 1426 1428 1430 1432 1433 1435 1438 1440 1442 1443 1444 1444 1445 1447 1449 1450 1450 1452 1453 1454 1456 1460 1465 1468 1471 1473 1475 1478 1481 1482 1483 1485 1488 1489 1491 1492 1495 1497 1500 1504 1507 1508 1509 1510 1512 1514 1517 1519 1520 1520 1520 1523 1525 1528 1530 1532 1533 1535 1536 1537 1538 1538 1538 1538 1537 1537 1538 1538 1538 1538 1538 1538
1396 1398 1400 1403 1405 1406 1408 1410 1412 1414 1416 1418 1420 1423 1424 1427 1428 1430 1432 1434 1435 1437 1438 1439 1441 1442 1443 1445 1445 1444 1445 1446 1448 1450 1452 1456 1460 1463 1465 1467 1471 1474 1476 1477 1479 1482 1483 1485 1488 1491 1494 1497 1501 1503 1505 1506 1506 1507 1511 1514 1516 1517 1518 1518 1520 1523 1525 1527 1529 1530 1532 1533 1535 1535 1536 1536 1536 1535 1535 1536 1536 1536 1536 1536 1535
1393 1396 1397 1399 1401 1402 1404 1406 1409 1412 1414 1415 1417 1419 1421 1423 1425 1426 1428 1429 1431 1432 1433 1434 1436 1437 1438 1439 1439 1440 1441 1442 1442 1444 1446 1449 1451 1454 1456 1459 1463 1467 1469 1470 1473 1476 1478 1480 1483 1486 1491 1495 1499 1502 1503 1503 1503 1505 1508 1511 1512 1514 1515 1516 1517 1520 1522 1524 1525 1527 1529 1531 1532 1533 1534 1534 1534 1533 1533 1534 1534 1534 1534 1533 1533
1391 1393 1395 1397 1398 1400 1402 1404 1406 1409 1411 1413 1414 1416 1417 1419 1420 1422 1423 1425 1426 1427 1428 1430 1432 1431 1432 1434 1434 1436 1439 1438 1437 1440 1443 1444 1446 1448 1450 1453 1456 1459 1462 1464 1468 1472 1474 1476 1479 1483 1487 1491 1496 1500 1501 1501 1501 1503 1505 1507 1509 1511 1512 1513 1515 1517 1519 1520 1522 1524 1526 1529 1530 1531 1532 1532 1532 1531 1531 1532 1532 1532 1532 1531 1531
1389 1391 1392 1394 1396 1398 1400 1402 1404 1405 1407 1409 1410 1411 1412 1414 1415 1416 1418 1420 1421 1422 1423 1425 1426 1426 1426 1427 1427 1431 1434 1434 1433 1436 1440 1443 1446 1448 1448 1449 1451 1453 1455 1458 1463 1468 1471 1474 1477 1480 1484 1487 1491 1495 1498 1498 1499 1501 1503 1504 1506 1507 1509 1510 1512 1514 1515 1517 1520 1522 1524 1527 1528 1530 1530 1530 1530 1529 1529 1530 1530 1530 1530 1529 1529
1387 1388 1390 1391 1393 1395 1397 1399 1400 1402 1404 1405 1406 1407 1408 1409 1409 1411 1412 1414 1415 1416 1417 1419 1420 1420 1421 1421 1421 1424 1426 1426 1426 1429 1433 1436 1440 1444 1447 1450 1451 1451 1452 1455 1459 1464 1468 1471 1475 1479 1483 1485 1487 1490 1494 1496 1497 1498 1500 1502 1503 1505 1506 1507 1508 1510 1512 1515 1517 1520 1522 1525 1526 1527 1528 1528 1528 1527 1527 1528 1528 1527 1527 1527 1527
1384 1386 1387 1389 1390 1392 1394 1396 1397 1399 1400 1401 1402 1403 1404 1405 1405 1406 1407 1408 1410 1410 1411 1412 1413 1413 1413 1414 1416 1418 1419 1419 1419 1420 1422 1425 1428 1432 1438 1444 1448 1450 1451 1452 1455 1459 1462 1466 1471 1475 1479 1483 1485 1489 1492 1495 1495 1495 1496 1498 1501 1502 1504 1504 1506 1508 1510 1513 1515 1518 1520 1522 1524 1525 1525 1525 1525 1525 1525 1526 1526 1525 1526 1526 1525
1383 1384 1385 1387 1388 1390 1391 1393 1394 1396 1397 1398 1399 1400 1401 1401 1401 1401 1402 1403 1405 1405 1405 1405 1405 1405 1406 1407 1409 1411 1411 1410 1409 1410 1412 1416 1422 1427 1433 1437 1442 1445 1446 1447 1449 1453 1458 1462 1465 1468 1473 1478 1483 1487 1491 1492 1492 1492 1493 1496 1498 1500 1501 1502 1504 1506 1508 1510 1513 1515 1517 1520 1521 1522 1523 1523 1523 1523 1523 1524 1524 1524 1524 1524 1524
1382 1383 1384 1386 1387 1388 1389 1390 1392 1393 1394 1395 1395 1396 1397 1397 1397 1396 1397 1398 1399 1399 1399 1398 1398 1399 1401 1401 1401 1402 1402 1400 1400 1402 1405 1409 1414 1419 1423 1427 1432 1436 1440 1443 1445 1449 1454 1458 1459 1461 1467 1474 1480 1486 1490 1492 1491 1490 1491 1494 1496 1497 1499 1500 1501 1503 1505 1507 1509 1512 1514 1517 1518 1519 1520 1520 1520 1520 1521 1522 1522 1522 1522 1522 1522
1382 1383 1384 1385 1386 1386 1387 1388 1389 1390 1391 1391 1392 1392 1392 1393 1392 1392 1393 1393 1394 1394 1394 1394 1394 1396 1397 1395 1394 1395 1396 1397 1398 1400 1401 1402 1404 1407 1410 1415 1419 1423 1429 1436 1443 1447 1451 1454 1456 1458 1462 1468 1476 1484 1490 1492 1490 1488 1489 1492 1494 1495 1496 1497 1499 1501 1503 1505 1507 1509 1512 1514 1515 1516 1517 1517 1517 1518 1519 1519 1519 1519 1519 1519 1519
1382 1382 1383 1384 1385 1385 1386 1386 1387 1387 1387 1388 1388 1388 1387 1388 1387 1387 1388 1388 1388 1389 1389 1388 1390 1392 1392 1390 1389 1391 1393 1394 1395 1396 1398 1398 1398 1401 1406 1412 1415 1417 1421 1427 1433 1438 1442 1445 1449 1453 1455 1459 1467 1477 1486 1490 1489 1488 1489 1491 1492 1492 1494 1495 1497 1499 1501 1502 1504 1507 1509 1511 1512 1513 1514 1514 1515 1515 1516 1517 1517 1517 1517 1517 1517
1380 1381 1382 1383 1384 1384 1385 1385 1385 1385 1385 1384 1384 1383 1383 1383 1382 1382 1382 1382 1382 1382 1382 1383 1383 1384 1385 1385 1385 1386 1387 1387 1387 1389 1391 1392 1394 1399 1406 1411 1415 1418 1421 1424 1428 1433 1437 1440 1443 1447 1450 1454 1462 1470 1478 1484 1487 1488 1489 1490 1490 1490 1492 1493 1495 1497 1498 1500 1502 1504 1506 1508 1509 1510 1511 1511 1512 1513 1513 1514 1514 1514 1514 1514 1514
1379 1380 1381 1381 1382 1382 1383 1383 1383 1382 1381 1381 1380 1379 1379 1378 1377 1377 1376 1376 1376 1376 1375 1376 1376 1377 1377 1378 1378 1379 1379 1379 1380 1382 1386 1389 1393 1398 1404 1408 1411 1414 1417 1421 1426 1432 1437 1441 1443 1445 1448 1452 1460 1468 1474 1479 1484 1486 1488 1488 1488 1489 1490 1492 1494 1495 1496 1498 1500 1502 1504 1505 1506 1507 1507 1508 1509 1510 1511 1511 1511 1511 1511 1511 1511
1379 1379 1379 1380 1381 1381 1381 1381 1381 1380 1379 1378 1377 1376 1375 1374 1373 1372 1371 1370 1369 1368 1368 1368 1368 1368 1368 1369 1371 1371 1372 1373 1375 1379 1383 1385 1389 1393 1398 1402 1407 1412 1415 1417 1422 1429 1435 1440 1444 1445 1446 1450 1457 1465 1471 1476 1481 1484 1486 1486 1487 1488 1489 1491 1492 1493 1494 1496 1498 1499 1501 1502 1503 1503 1504 1505 1506 1507 1508 1509 1509 1508 1508 1508 1509
1378 1378 1378 1379 1379 1379 1380 1380 1379 1378 1377 1376 1374 1373 1372 1370 1369 1369 1368 1366 1364 1363 1361 1360 1360 1361 1361 1362 1364 1365 1366 1367 1370 1374 1377 1379 1382 1387 1391 1396 1401 1408 1413 1415 1419 1426 1433 1438 1442 1445 1446 1448 1453 1460 1466 1472 1477 1481 1483 1484 1485 1486 1487 1488 1490 1491 1492 1494 1495 1497 1498 1499 1499 1500 1501 1502 1503 1504 1505 1506 1506 1505 1505 1506 1506
1379 1378 1378 1378 1378 1378 1379 1379 1378 1377 1376 1374 1373 1371 1369 1368 1367 1366 1365 1363 1361 1358 1355 1352 1351 1352 1353 1355 1356 1357 1358 1361 1364 1367 1370 1372 1374 1377 1382 1388 1394 1402 1408 1414 1419 1426 1432 1436 1439 1442 1445 1448 1451 1457 1462 1468 1474 1478 1480 1481 1482 1483 1485 1486 1487 1489 1490 1492 1493 1494 1495 1495 1496 1497 1498 1499 1500 1502 1503 1503 1503 1503 1503 1503 1503
1379 1378 1377 1377 1377 1377 1378 1378 1377 1376 1375 1374 1372 1370 1369 1368 1366 1364 1363 1360 1357 1353 1349 1346 1344 1344 1345 1347 1348 1349 1350 1352 1354 1358 1362 1365 1368 1372 1377 1384 1392 1399 1406 1414 1420 1424 1429 1434 1437 1440 1444 1447 1451 1455 1461 1466 1471 1475 1477 1478 1479 1481 1482 1483 1485 1487 1488 1489 1490 1491 1491 1492 1493 1495 1496 1497 1498 1499 1500 1500 1500 1500 1500 1500 1500
1380 1379 1378 1376 1376 1376 1377 1377 1377 1376 1375 1374 1372 1370 1369 1367 1366 1364 1361 1358 1354 1350 1345 1341 1340 1339 1340 1343 1344 1344 1345 1344 1343 1347 1354 1359 1365 1372 1379 1386 1394 1401 1406 1412 1418 1422 1426 1430 1434 1438 1442 1446 1450 1454 1459 1464 1468 1471 1473 1475 1477 1478 1480 1481 1483 1484 1486 1487 1487 1488 1488 1489 1490 1492 1493 1494 1495 1496 1497 1497 1498 1498 1498 1497 1497
1380 1379 1378 1376 1375 1376 1377 1377 1377 1376 1375 1373 1371 1369 1368 1367 1366 1365 1362 1358 1353 1348 1343 1340 1341 1341 1342 1343 1342 1343 1347 1345 1339 1340 1351 1360 1367 1374 1383 1390 1397 1403 1407 1411 1416 1421 1425 1428 1432 1436 1441 1445 1449 1453 1458 1462 1465 1468 1470 1472 1474 1475 1477 1478 1480 1481 1483 1484 1484 1484 1485 1486 1488 1489 1490 1491 1493 1494 1494 1495 1495 1496 1496 1495 1495
1380 1379 1378 1376 1375 1375 1376 1377 1377 1376 1374 1373 1371 1369 1368 1368 1367 1367 1365 1361 1356 1350 1344 1344 1347 1349 1350 1350 1349 1348 1353 1355 1351 1351 1360 1368 1372 1379 1386 1393 1398 1402 1406 1409 1414 1418 1423 1427 1431 1435 1439 1443 1447 1452 1456 1459 1462 1465 1467 1469 1471 1472 1474 1475 1477 1478 1480 1480 1481 1481 1482 1484 1485 1486 1487 1489 1490 1491 1491 1492 1492 1493 1493 1493 1492
1381 1379 1378 1376 1375 1376 1376 1377 1377 1376 1375 1373 1371 1369 1369 1370 1369 1369 1368 1365 1361 1356 1351 1351 1353 1355 1356 1358 1358 1355 1357 1362 1366 1368 1372 1376 1379 1383 1389 1395 1399 1402 1404 1408 1412 1416 1421 1425 1429 1434 1438 1442 1446 1450 1454 1457 1459 1462 1464 1466 1468 1470 1471 1473 1474 1475 1476 1477 1477 1478 1480 1481 1482 1483 1485 1486 1487 1488 1488 1489 1490 1490 1490 1490 1489
1381 1379 1378 1376 1376 1376 1377 1377 1377 1377 1375 1373 1372 1371 1371 1372 1372 1371 1371 1368 1365 1362 1359 1358 1358 1359 1361 1363 1364 1363 1363 1366 1371 1374 1377 1380 1383 1386 1391 1396 1400 1403 1405 1408 1412 1415 1420 1424 1428 1433 1437 1441 1445 1448 1451 1454 1456 1459 1461 1463 1465 1467 1468 1470 1471 1472 1473 1473 1474 1475 1477 1478 1479 1481 1482 1483 1484 1485 1486 1486 1487 1487 1487 1487 1487
1381 1379 1378 1378 1378 1378 1378 1378 1378 1378 1376 1374 1373 1372 1373 1373 1373 1373 1372 1371 1369 1367 1365 1364 1364 1365 1366 1367 1368 1369 1370 1371 1374 1377 1380 1383 1386 1389 1393 1397 1401 1404 1407 1410 1413 1416 1420 1424 1428 1432 1436 1440 1443 1446 1449 1451 1454 1456 1458 1460 1462 1464 1465 1466 1467 1468 1469 1470 1471 1473 1475 1476 1477 1478 1479 1480 1481 1482 1483 1484 1484 1484 1484 1484 1484
1381 1380 1379 1379 1379 1379 1379 1379 1379 1378 1376 1374 1373 1373 1373 1373 1374 1374 1373 1372 1371 1370 1370 1369 1368 1369 1370 1371 1372 1373 1374 1376 1378 1381 1383 1386 1389 1392 1395 1399 1402 1405 1407 1410 1413 1417 1420 1424 1428 1432 1435 1439 1442 1444 1447 1449 1451 1453 1455 1457 1459 1461 1462 1463 1464 1465 1466 1468 1469 1471 1472 1474 1475 1475 1476 1477 1478 1479 1480 1481 1481 1481 1481 1481 1481
1382 1381 1380 1380 1380 1380 1380 1380 1379 1379 1377 1375 1374 1374 1373 1373 1374 1373 1373 1373 1372 1372 1372 1372 1372 1373 1373 1374 1374 1376 1377 1379 1382 1384 1386 1388 1391 1394 1397 1399 1402 1405 1408 1411 1414 1417 1421 1424 1428 1431 1434 1437 1440 1443 1445 1447 1449 1451 1453 1455 1456 1457 1459 1460 1461 1462 1464 1465 1467 1469 1470 1471 1472 1472 1473 1474 1475 1476 1477 1478 1478 1478 1478 1478 1478
1384 1383 1382 1381 1381 1380 1380 1380 1379 1378 1377 1376 1375 1375 1375 1375 1374 1374 1374 1374 1374 1374 1373 1373 1373 1374 1376 1377 1378 1380 1381 1384 1386 1388 1390 1391 1393 1395 1397 1399 1403 1406 1409 1412 1415 1418 1421 1424 1427 1430 1433 1436 1438 1440 1443 1445 1447 1449 1451 1452 1454 1455 1456 1458 1459 1460 1461 1463 1465 1466 1467 1468 1469 1469 1470 1471 1472 1473 1475 1475 1475 1475 1475 1476 1476
1387 1385 1384 1383 1382 1382 1381 1380 1379 1378 1377 1376 1375 1375 1376 1376 1375 1375 1374 1374 1375 1375 1375 1375 1376 1377 1380 1381 1383 1384 1385 1387 1389 1390 1392 1393 1394 1394 1396 1399 1403 1407 1409 1412 1415 1418 1421 1423 1426 1429 1432 1434 1436 1438 1440 1442 1444 1446 1448 1449 1451 1452 1454 1455 1456 1457 1459 1460 1462 1463 1464 1465 1466 1467 1467 1468 1469 1470 1471 1472 1472 1472 1473 1473 1472
1389 1388 1386 1385 1385 1384 1383 1382 1381 1379 1378 1377 1376 1376 1376 1376 1376 1375 1375 1375 1376 1377 1377 1378 1379 1380 1382 1384 1385 1386 1387 1389 1391 1392 1394 1395 1395 1396 1399 1402 1405 1407 1409 1412 1415 1418 1420 1423 1425 1428 1430 1433 1435 1437 1438 1440 1442 1443 1445 1447 1448 1449 1451 1452 1453 1455 1457 1458 1459 1461 1462 1462 1463 1464 1464 1465 1466 1467 1468 1469 1469 1469 1470 1470 1469
1392 1390 1389 1388 1387 1387 1386 1385 1383 1382 1380 1380 1379 1378 1378 1378 1377 1376 1375 1376 1376 1377 1378 1380 1381 1381 1383 1385 1386 1387 1388 1390 1392 1393 1394 1395 1396 1398 1401 1403 1405 1407 1410 1412 1415 1417 1420 1422 1424 1427 1429 1431 1433 1434 1436 1438 1440 1441 1443 1445 1446 1447 1449 1450 1452 1453 1455 1456 1457 1458 1459 1459 1460 1460 1461 1462 1463 1464 1464 1465 1466 1466 1467 1466 1466
1395 1393 1392 1391 1390 1389 1388 1387 1386 1385 1384 1383 1383 1382 1381 1380 1379 1377 1376 1376 1376 1377 1378 1380 1381 1382 1384 1386 1387 1388 1389 1391 1392 1394 1395 1396 1397 1399 1402 1403 1405 1408 1410 1412 1414 1416 1419 1421 1423 1425 1427 1429 1431 1433 1434 1436 1438 1439 1441 1443 1445 1446 1448 1449 1450 1452 1453 1454 1455 1456 1456 1456 1457 1457 1457 1458 1459 1460 1461 1462 1463 1463 1464 1463 1463
1397 1396 1395 1394 1393 1392 1391 1389 1388 1388 1387 1387 1386 1385 1384 1384 1382 1380 1378 1378 1377 1378 1379 1380 1382 1383 1386 1388 1388 1389 1391 1392 1394 1395 1396 1397 1399 1400 1402 1404 1406 1407 1409 1411 1414 1416 1418 1420 1422 1424 1425 1427 1429 1431 1433 1434 1436 1438 1440 1441 1443 1445 1446 1447 1449 1450 1451 1452 1453 1453 1453 1453 1453 1453 1454 1455 1456 1457 1458 1459 1460 1460 1460 1460 1460